Location: Berny
(49.7450°N, 2.3490°E)
Time: 06:00:29
(UTC+00:00)

Daily predictions for brighter satellites

Satellite Brightness Start Highest point End
(mag) Time Altitude Azimuth Time Altitude Azimuth Time Altitude Azimuth
NOSS 3-1 (A) 4.4 17:48:14 10° NW 17:55:34 78° SW 18:04:19 10° SSE
CZ-4C R/B 4.1 17:57:29 10° N 18:01:47 66° WNW 18:05:56 10° SSW
Cosmos 407 Rocket 4.5 17:56:50 10° SW 18:01:52 52° WNW 18:07:00 10° NNE
CZ-2C R/B 4.4 17:56:52 10° N 18:01:57 39° WNW 18:07:04 10° SW
CZ-4 R/B 4.4 17:59:00 10° SSE 18:03:06 85° ENE 18:07:15 10° NNW
CZ-4B DEB 4.4 17:58:38 10° SSE 18:04:06 82° WSW 18:09:37 10° NNW
SL-16 R/B 3.9 18:07:26 10° ESE 18:08:36 11° E 18:09:46 10° E
USA 215 3.4 18:02:36 10° ENE 18:09:11 80° NNW 18:15:43 10° WSW
USA 186 3.8 18:07:24 10° E 18:09:12 14° ENE 18:11:00 10° NNE
Tsikada Rocket 4.5 18:06:13 10° SSW 18:12:37 72° W 18:19:03 10° N
Cosmos 1844 Rocket 4.3 18:09:32 10° N 18:13:28 19° NE 18:17:23 10° E
SL-4 R/B 2.4 18:09:07 10° WNW 18:13:31 72° N 18:18:03 11° E
ARGOS Delta rocket 4.2 18:09:56 10° NNE 18:15:11 52° E 18:20:09 10° S
Timation 2 Rocket 4.1 18:10:57 10° NNW 18:17:26 60° NE 18:23:35 10° SE
SKYMED 3 4.4 18:13:22 10° NNE 18:17:31 84° ESE 18:21:38 10° SSW
BREEZE-M DEB (TANK) 4.4 18:16:53 10° SSW 18:21:24 51° SE 18:38:27 10° ENE
Okean O Rocket 1.7 18:18:10 10° SSE 18:22:25 57° ENE 18:26:44 10° N
Cosmos 2219 4.2 18:18:43 10° NW 18:24:17 52° WSW 18:29:51 10° S
Nadezhda 4 Rocket 4.5 18:19:32 10° SSE 18:25:18 38° E 18:31:03 10° NNE
Cosmos 1242 Rocket 2.4 18:24:30 10° S 18:28:03 69° E 18:31:36 10° NNE
Spot 1 3.9 18:24:19 10° NNE 18:28:39 79° ESE 18:32:45 10° SSW
BREEZE M DEB (TANK) 4.4 18:25:24 10° SSW 18:29:24 16° SSE 18:31:25 12° SE
Cosmos 1809 Rocket 4.5 18:24:19 10° S 18:30:14 58° E 18:36:12 10° NNE
SL-14 R/B 3.2 18:26:29 10° N 18:30:25 64° ENE 18:34:22 10° SSE
Cosmos 2263 Rocket 2.2 18:26:09 10° NNW 18:31:51 67° ENE 18:37:30 10° SE
Cosmos 1805 3.1 18:31:00 10° S 18:34:51 69° E 18:38:44 10° NNE
Cosmos 2360 4.4 18:29:08 10° SSW 18:34:52 79° WNW 18:40:38 10° NNE
Cosmos 1674 Rocket 3.6 18:30:31 10° N 18:34:53 61° ENE 18:39:16 10° SSE
YAOGAN 1 2.6 18:31:56 10° SSE 18:36:16 90° W 18:40:37 10° NNW
Meteor 2-5 Rocket 4.4 18:31:44 10° N 18:36:45 33° ENE 18:41:16 12° SE
SKYMED 2 4.5 18:33:24 10° N 18:37:39 53° WNW 18:41:52 10° SSW
Cosmos 1726 2.3 18:35:03 10° SSE 18:38:32 45° E 18:42:03 10° NNE
COBE Rocket 4.0 18:33:41 10° S 18:38:35 82° WSW 18:43:23 10° NNW
OBJECT-B 1.2 18:38:57 23° E 18:39:37 27° ENE 18:41:53 10° N
H-2A R/B 4.1 18:39:28 15° ENE 18:40:10 15° ENE 18:42:27 10° NNE
Cosmos 2082 4.2 18:37:34 10° NNW 18:43:16 66° WSW 18:48:55 10° SSE
IRIDIUM 106 4.3 18:40:46 10° SSE 18:45:52 58° E 18:51:01 10° N
Cosmos 1766 3.4 18:45:03 10° S 18:48:49 48° E 18:52:37 10° NNE
Cosmos 1025 Rocket 4.2 18:46:55 10° NNE 18:50:22 23° ENE 18:51:17 21° E
Cosmos 1697 Rocket 3.3 18:47:16 10° SW 18:52:48 59° WNW 18:58:23 10° NNE
CSL-04 Debris 4.3 18:50:43 10° SE 18:56:00 57° ENE 19:01:17 10° N
Cosmos 2221 Rocket 4.2 18:52:53 10° NNW 18:57:21 62° W 19:01:49 10° S
Cosmos 1975 Rocket 4.0 18:55:51 10° N 18:59:45 29° ENE 19:00:50 26° E
ASTEX 1 4.4 18:55:11 10° N 19:00:00 50° WNW 19:04:48 10° SSW
Cosmos 1092 Rocket 4.4 18:56:27 10° SSE 19:02:17 41° E 19:08:06 10° NNE
Landsat 7 4.3 19:00:02 24° ESE 19:02:17 38° ENE 19:06:38 10° N
IGS 5A 3.7 18:59:48 21° SE 19:02:18 49° ENE 19:06:19 10° N
Cosmos 1378 Rocket 3.8 18:59:42 10° NNW 19:04:05 70° W 19:08:25 10° S
Resurs 01 Rocket 2.8 19:05:25 23° ENE 19:05:51 23° ENE 19:09:21 10° N
Cosmos 1733 4.4 19:05:28 10° SSW 19:09:03 43° WNW 19:12:40 10° N
Cosmos 968 Rocket 3.9 19:05:08 10° S 19:09:59 39° ESE 19:14:49 10° NE
ATLAS 2AS CENTAUR R/B 4.4 19:08:31 10° WNW 19:14:49 28° N 19:20:50 10° NE
Cosmos 1470 3.1 19:15:56 39° E 19:15:56 39° E 19:19:18 10° NNE
Cosmos 1733 Rocket 4.3 19:12:03 10° SSW 19:16:18 44° WNW 19:20:36 10° N
ISS -2.8 19:18:55 10° W 19:22:04 37° SSW 19:22:45 33° S
Cosmos 2084 4.0 19:18:53 10° WSW 19:22:36 50° NW 19:25:48 14° NE
Cosmos 2322 Rocket 3.9 19:19:30 10° SSE 19:27:51 17° NE 19:29:19 10° NE
Ariane Rocket 4.1 19:25:15 25° ENE 19:25:29 26° ENE 19:29:38 10° N
CSL-04 Rocket 3.6 19:21:40 16° SSE 19:26:03 85° ENE 19:31:29 10° NNW
Okean-O 2.5 19:24:10 27° SSE 19:26:35 81° ENE 19:31:03 10° NNW
Resurs 1-3 3.5 19:26:16 38° SE 19:27:51 67° ENE 19:32:14 10° N
CZ-4 R/B 3.0 19:24:10 10° SSW 19:28:02 37° W 19:31:56 10° NNW
Gbstr 26 Del rocket 4.5 19:21:45 10° SW 19:29:23 68° SSE 19:34:41 24° ENE
SJ-6B 2.8 19:30:23 32° S 19:32:01 75° WSW 19:35:48 10° NNW
Cosmos 1570 Rocket 3.9 19:26:50 10° NNW 19:32:09 90° ESE 19:34:49 30° SSE
Cosmos 1980 Rocket 2.8 19:27:31 10° SW 19:33:03 56° NW 19:38:37 10° NNE
Meteor 1-12 Rocket 4.4 19:29:09 10° SSW 19:35:09 82° WNW 19:41:13 10° N
Meteor 2-21 Rocket 4.5 19:29:19 10° SSW 19:35:23 80° W 19:41:29 10° N
JB-3 4.2 19:34:01 10° NNE 19:38:06 69° ESE 19:38:37 61° SSE
Cosmos 1627 Rocket 4.3 19:32:16 10° S 19:38:18 66° E 19:44:23 10° NNE
USA 186 2.7 19:40:04 33° SSW 19:41:06 47° W 19:44:23 10° NNW
deb Chang Zheng 4 3.3 19:41:18 64° E 19:41:25 65° ENE 19:45:32 10° N
Cosmos 1428 Rocket 4.3 19:39:33 10° S 19:45:43 81° E 19:51:59 10° N
Cosmos 2195 Rocket 4.4 19:39:39 10° S 19:45:52 85° E 19:52:12 10° N
Cosmos 2278 3.9 19:42:39 10° SW 19:48:20 73° WNW 19:54:02 10° NNE
Meteor 1-24 Rocket 3.6 19:43:25 10° NNW 19:48:44 82° W 19:51:25 30° S
Cosmos 1437 Rocket 3.0 19:46:03 10° SSW 19:49:47 64° WNW 19:53:31 10° N
SL-16 R/B 2.1 19:45:58 10° SSW 19:51:33 64° ESE 19:57:11 10° NNE
USA 215 3.9 19:47:18 19° ENE 19:51:51 50° N 19:58:05 10° W
SL-4 R/B 2.5 19:48:36 10° WNW 19:53:04 57° SSW 19:53:27 55° S
Cosmos 2208 Rocket 4.1 19:50:08 10° NNW 19:55:30 75° WSW 19:57:21 42° S
Cosmos 1844 Rocket 2.6 19:52:44 10° NNW 19:58:26 70° ENE 19:59:17 60° ESE
Okean O Rocket 4.3 19:56:09 10° SW 19:59:08 18° W 20:02:09 10° NW
Meteor 1-22 Rocket 4.2 19:55:44 10° SSW 20:01:07 79° WNW 20:06:45 10° N
USA 81 4.1 19:56:14 10° N 20:01:32 75° W 20:03:45 36° S
Landsat 5 4.4 19:57:17 10° N 20:01:40 52° WNW 20:06:01 10° SW
Cosmos 2278 Rocket 3.9 19:58:37 10° N 20:02:31 18° NE 20:03:03 18° NE
Cosmos 2026 Rocket 3.9 19:57:18 10° S 20:03:22 85° W 20:09:28 10° N
Cosmos 1782 Rocket 3.9 20:06:54 43° SW 20:08:10 64° WNW 20:12:30 10° N
Cosmos 1553 Rocket 3.9 20:01:54 10° N 20:08:16 77° E 20:09:44 55° SSE
MOS 1 4.1 20:08:42 64° SSE 20:09:37 83° ENE 20:15:19 10° NNW
OBJECT-B 3.6 20:09:47 12° W 20:09:47 12° W 20:10:53 10° WNW
Cosmos 1943 Rocket 4.5 20:10:40 10° N 20:12:03 11° NNE 20:13:25 10° NE
H-2A R/B 3.1 20:15:55 50° NW 20:15:55 50° NW 20:19:02 10° NNW
Cosmos 2263 Rocket 4.2 20:10:51 10° NW 20:15:16 24° WSW 20:19:41 10° SSW
USA 281 3.7 20:16:22 41° ENE 20:16:55 42° NE 20:23:00 10° NNW
Cosmos 1844 3.5 20:14:27 10° NNW 20:20:03 84° ENE 20:20:07 84° ENE
MetOp-A 4.4 20:21:57 42° WNW 20:21:57 42° WNW 20:24:54 10° NNW
Cosmos 1025 Rocket 4.1 20:24:05 10° NNW 20:28:08 41° W 20:28:10 41° W
MetOp-B 4.3 20:31:46 67° N 20:31:46 67° N 20:36:28 10° NNW
SPOT 1/Viking Rocket 3.7 20:32:06 67° WSW 20:32:06 67° WSW 20:37:16 10° NNW
SPOT 3 Rocket 4.3 20:37:48 44° N 20:37:48 44° N 20:41:27 10° N
Cosmos 2360 Rocket 4.4 20:46:44 14° NNE 20:46:44 14° NNE 20:47:26 10° NNE
Resurs 01 Rocket 2.8 20:42:59 41° WNW 20:42:59 41° WNW 20:46:23 10° NNW
Ariane Rocket 4.1 21:05:27 43° NW 21:05:27 43° NW 21:09:09 10° NNW
Terra 3.8 21:07:10 24° N 21:07:10 24° N 21:09:04 10° N
ERS-1 Rocket 4.5 21:07:50 31° N 21:07:50 31° N 21:10:28 10° N
ATLAS 2AS CENTAUR R/B 3.9 21:01:25 10° NW 21:07:56 33° NNE 21:08:59 31° NE
Cosmos 2322 Rocket 3.1 21:09:31 44° NNW 21:09:31 44° NNW 21:13:47 10° NNE
Gbstr 26 Del rocket 4.5 21:08:59 10° W 21:17:02 80° N 21:17:10 79° N
S3M 4.5 21:11:02 10° NNW 21:16:36 55° WNW 21:16:36 55° WNW
NOSS 3-4 (A) 4.0 21:12:34 10° NW 21:18:30 66° N 21:18:30 66° N
NOSS 3-4 (C) 4.0 21:12:42 10° NW 21:18:36 66° N 21:18:36 66° N
USA 215 3.8 21:34:39 52° N 21:34:39 52° N 21:40:35 10° WNW
SL-16 R/B 3.9 21:31:12 10° WSW 21:36:06 29° NW 21:41:03 10° NNE
Cosmos 2278 Rocket 3.8 21:42:02 10° NNW 21:44:53 30° NNW 21:44:53 30° NNW
Cosmos 1943 Rocket 4.2 21:52:42 10° NNW 21:54:57 21° N 21:54:57 21° N
USA 281 4.2 22:03:15 40° WNW 22:03:15 40° WNW 22:07:43 10° NW
Cosmos 2369 Rocket 4.5 21:57:26 10° N 22:00:00 17° NNE 22:00:00 17° NNE
Cosmos 2360 Rocket 4.4 22:28:28 21° N 22:28:28 21° N 22:31:04 10° NNE
ATLAS 2AS CENTAUR R/B 4.1 22:52:46 10° NW 22:56:24 32° NW 22:56:24 32° NW
